Content
SEND FEEDBACK

Daily
Averages
Monthly
Summary
Egypt

HURGHADA, EGYPT


Home > Middle East > Egypt
Elevation: 10 feet     Latitude: 27 18N     Longitude: 033 48E

WEATHER
 
SELECT A DAY
Number of Records: 123,338;   Date Range: 7/10/96 - 7/20/14
 
SHARE

PRINT THIS DATA

[ ← Previous Day ]
WEATHER ALMANAC - JANUARY 23, 2013
[ Next Day → ]
[ °C ]   °F
Weather ElementAverageHighLow
Temperature66.8 °F78 °F (2:00 pm)59 °F (5:00 am)
Dewpoint53.2 °F61 °F (2:00 am)39.2 °F (9:00 pm)
Humidity62.9 %94 % (1:00 am)34 % (2:00 pm)
Barometer30.05 in30.09 in (8:00 am)30.01 in (1:00 am)
Wind Speed15 mph23 mph (2:00 pm)
Weather ElementAverage
Visibility5.4 mi
Wind DirectionNW (315.9 °)

Weather ElementTotal
Precipitation---
Cooling Degree Days3.5 (Base 65)
Growing Degree Days18.5 (Base 50)
Averaged from 27 records on January 23, 2013
WEATHER CONDITIONS BREAKOUT
WIND DIRECTION BREAKOUT
WEATHER BY HOUR - JANUARY 23, 2013
[ °C ]   °F
Local TimeTemperatureDewpointHumidityBarometerVisibilityWind DirectionWind SpeedGust SpeedPrecipitationEventsConditions
1:00 AM62.6 °F60.8 °F94 %30.01 inNNW (340°)4.6 mphClear
2:00 AM63.0 °F61.0 °F91 %30.04 in6.0 miNW (310°)10.4 mph
2:00 AM62.6 °F60.8 °F94 %30.04 inNW (310°)10.4 mphClear
3:00 AM64.4 °F59.0 °F83 %30.04 inNW (320°)13.8 mphClear
4:00 AM60.8 °F53.6 °F77 %30.01 inWNW (300°)13.8 mphClear
5:00 AM59.0 °F50.0 °F72 %30.01 inWNW (300°)15.0 mphClear
6:00 AM59.0 °F53.6 °F82 %30.04 inWNW (300°)16.1 mphClear
7:00 AM59.0 °F53.6 °F82 %30.06 inWNW (300°)11.5 mphClear
8:00 AM60.0 °F55.0 °F78 %30.09 in6.0 miWNW (290°)10.4 mph
8:00 AM60.8 °F55.4 °F82 %30.06 inWNW (290°)10.4 mphClear
9:00 AM64.4 °F55.4 °F73 %30.04 inWNW (300°)13.8 mphClear
10:00 AM68.0 °F55.4 °F64 %30.09 inNorth (350°)17.3 mphClear
11:00 AM71.6 °F55.4 °F57 %30.09 inNorth (360°)19.6 mphClear
12:00 PM75.2 °F53.6 °F47 %30.04 inNorth (360°)20.7 mphClear
1:00 PM77.0 °F55.4 °F47 %30.01 in5.0 miNorth (360°)18.4 mph
2:00 PM78.0 °F54.0 °F34 %30.02 in5.0 miNW (310°)23.0 mphBlowing Sand
2:00 PM77.0 °F55.4 °F47 %30.01 in5.0 miNorth (360°)23.0 mph
3:00 PM77.0 °F55.4 °F47 %30.01 in5.0 miNorth (360°)19.6 mph
4:00 PM75.2 °F53.6 °F47 %30.04 in5.0 miNorth (10°)18.4 mph
5:00 PM73.4 °F51.8 °F47 %30.04 inNorth (360°)17.3 mphClear
6:00 PM69.8 °F53.6 °F56 %30.04 inNorth (350°)13.8 mphClear
7:00 PM68.0 °F50.0 °F52 %30.06 inNorth (350°)16.1 mphClear
8:00 PM66.0 °F46.0 °F37 %30.09 in6.0 miNorth (350°)13.8 mph
8:00 PM66.2 °F46.4 °F49 %30.06 inNorth (350°)13.8 mphClear
9:00 PM66.2 °F39.2 °F37 %30.06 inNNW (340°)16.1 mphClear
10:00 PM60.8 °F46.4 °F59 %30.09 inWNW (300°)11.5 mphClear
11:00 PM59.0 °F46.4 °F63 %30.06 inWNW (300°)11.5 mphClear
Hourly data recorded from HEGN, located miles away from Hurghada, Egypt







STORIES FROM OUR PARTNERS